[[{"header":{"parameterUnit":"m.s-1","parameterCategory":1,"la1":30.2991,"la2":30.254,"lo1":-89.0895,"lo2":-89.0444,"dy":0.0017,"dx":0.0017,"nx":28,"ny":28,"refTime":"2025-02-24T09:00:00:Z","depth":0,"parameterNumber":2,"parameterNumberName":"U-component_of_WINDS"},"data":[0,0,0,0,0,0,0,0,0,0,0,0,0,0,0,0,0,0,0,0,0,0,0,0,0,0,0,0,0,0,0,0,0,0,0,0,0,0,0,0,0,0,0,0,0,0,0,0,0,0,0,0,0,0,0,0,0,0,-1.7477,-1.7478,0,-1.7594,-1.7595,-1.7596,-1.7564,-1.7562,-1.7559,-1.7557,-1.7681,-1.7687,-1.7692,0,0,0,0,0,0,0,0,0,0,0,0,0,-1.723,-1.7235,-1.7477,-1.7478,-1.748,-1.7593,-1.7595,-1.7597,-1.7564,-1.7562,-1.7559,-1.7556,-1.768,-1.7686,-1.7693,0,0,0,0,0,0,0,0,0,0,0,0,0,-1.7341,-1.7237,-1.7477,-1.7477,-1.7479,-1.7593,-1.7595,-1.7597,-1.7565,-1.7561,-1.7558,-1.7555,-1.7677,-1.7685,-1.7694,-1.7816,0,0,-1.7719,-1.7722,0,0,0,0,0,0,0,0,-1.7335,-1.7351,-1.7476,-1.7478,-1.7479,-1.756,-1.7554,-1.7671,-1.7566,-1.7532,-1.7557,-1.7553,-1.7644,-1.7655,-1.7685,-1.7822,-1.7827,-1.772,-1.7725,-1.7728,-1.7731,0,0,0,0,0,0,0,-1.7328,-1.7345,-1.7523,-1.7478,-1.748,-1.7473,-1.7485,-1.7576,-1.7607,-1.7535,-1.7533,-1.7547,-1.7645,-1.7677,-1.7688,-1.7829,-1.7719,-1.7727,-1.7732,-1.7735,-1.8073,-1.8077,0,0,0,0,0,0,-1.7318,-1.7339,-1.752,-1.7527,-1.7397,-1.7481,-1.7494,-1.7538,-1.7606,-1.7613,-1.755,-1.7545,-1.7665,-1.7678,-1.7692,-1.7841,-1.7728,-1.7736,-1.7741,-1.807,-1.8074,-1.8079,0,0,0,0,0,0,-1.7313,-1.7334,-1.7515,-1.7432,-1.7455,-1.7488,-1.7539,-1.7542,-1.7575,-1.7617,-1.7623,-1.7577,-1.7662,-1.768,-1.7785,-1.7845,-1.774,-1.7747,-1.8065,-1.8071,-1.8077,-1.814,0,0,0,0,0,0,-1.7306,-1.7333,-1.7379,-1.7434,-1.7459,-1.7606,-1.7542,-1.7547,-1.7589,-1.7583,-1.7644,-1.7651,-1.7661,-1.7773,-1.7794,-1.7855,-1.7754,-1.806,-1.8068,-1.8075,-1.8133,-1.8148,-1.816,0,0,0,0,0,-1.7297,-1.7393,-1.7381,-1.7403,-1.7517,-1.7609,-1.7624,-1.7632,-1.7593,-1.7641,-1.7668,-1.7649,-1.7834,-1.7784,-1.7807,-1.7871,-1.8056,-1.8065,-1.8074,-1.8127,-1.8145,-1.816,0,0,0,0,0,0,-1.7346,-1.74,-1.7388,-1.7504,-1.7552,-1.7603,-1.7663,-1.765,-1.7712,-1.7705,-1.7713,-1.7727,-1.7835,-1.7863,-1.7806,-1.7994,-1.794,-1.7954,-1.7972,-1.799,-1.8003,-1.7995,-1.7761,0,0,0,0,0,-1.737,-1.7438,-1.7482,-1.758,-1.7605,-1.763,-1.767,-1.7672,-1.7723,-1.7743,-1.7778,-1.783,-1.7899,-1.7945,-1.8012,-1.8136,-1.815,-1.8191,-1.8205,-1.8216,-1.8229,-1.8298,-1.8318,-1.8108,-1.8108,-1.8108,0,0,-1.7421,-1.7459,-1.7502,-1.7591,-1.7629,-1.7701,-1.7647,-1.7726,-1.778,-1.7756,-1.7858,-1.7885,-1.7942,-1.8058,-1.811,-1.8085,-1.8289,-1.8227,-1.8236,-1.8243,-1.8309,-1.8329,-1.8347,-1.8115,-1.8113,-1.8112,0,0,-1.7551,-1.7586,-1.7672,-1.771,-1.7767,-1.7782,-1.7803,-1.7856,-1.7873,-1.7974,-1.7958,-1.8023,-1.8142,-1.8185,-1.8222,-1.8367,-1.8353,-1.8388,-1.8461,-1.8528,-1.8545,-1.8559,-1.8613,-1.8632,-1.84,-1.84,-1.8401,0,-1.7608,-1.7715,-1.7718,-1.7799,-1.7839,-1.7818,-1.7906,-1.7943,-1.802,-1.8049,-1.8018,-1.8168,-1.8205,-1.8331,-1.8366,-1.8396,-1.8422,-1.8383,-1.8541,-1.8556,-1.857,-1.8622,-1.8642,-1.8405,-1.8404,-1.8404,-1.8403,0,-1.7783,-1.7857,-1.792,-1.7993,-1.804,-1.8124,-1.8142,-1.8189,-1.8186,-1.8206,-1.831,-1.8353,-1.8429,-1.8458,-1.8457,-1.8584,-1.8567,-1.8538,-1.8485,-1.8594,-1.8643,-1.8663,-1.8411,-1.8409,-1.8408,-1.8407,0,0,-1.7951,-1.8022,-1.8046,-1.8079,-1.8139,-1.8198,-1.828,-1.8352,-1.8394,-1.8447,-1.8518,-1.8619,-1.8594,-1.8636,-1.8639,-1.8697,-1.8812,-1.8662,-1.8664,-1.8691,-1.8958,-1.8981,-1.9003,-1.8801,-1.8805,-1.8808,-1.8954,0,-1.8088,-1.8233,-1.8238,-1.8372,-1.8441,-1.8421,-1.8494,-1.8539,-1.8559,-1.8622,-1.8645,-1.8717,-1.8676,-1.8702,-1.8758,-1.8786,-1.8866,-1.8775,-1.8871,-1.8874,-1.886,-1.9029,-1.9053,-1.9189,-1.8972,-1.8976,-1.8978,0,-1.8269,-1.8326,-1.8466,-1.8516,-1.8546,-1.8611,-1.8678,-1.8737,-1.8789,-1.8799,-1.8845,-1.884,-1.8926,-1.8867,-1.8987,-1.8925,-1.8964,-1.8983,-1.8989,-1.9001,-1.8935,-1.9048,-1.9232,-1.9254,-1.9008,-1.9005,-1.9003,0,-1.838,-1.8492,-1.859,-1.8619,-1.8679,-1.8726,-1.8753,-1.8801,-1.8844,-1.8903,-1.8931,-1.8999,-1.9037,-1.9091,-1.9104,-1.9059,-1.9226,-1.9167,-1.9239,-1.9239,-1.9278,-1.9276,-1.9474,-1.9298,-1.9297,-1.9297,-1.9297,0,-1.8535,-1.8623,-1.8641,-1.8702,-1.8799,-1.8804,-1.8901,-1.8925,-1.8967,-1.9034,-1.902,-1.9083,-1.9095,-1.9161,-1.9172,-1.9271,-1.9288,-1.9301,-1.9303,-1.9304,-1.9303,-1.9332,-1.9324,-1.9302,-1.9301,-1.93,-1.9299,0,-1.8678,-1.8693,-1.88,-1.8847,-1.8862,-1.8932,-1.8973,-1.9032,-1.9049,-1.9134,-1.9154,-1.9182,-1.9259,-1.9276,-1.9368,-1.9375,-1.9494,-1.9486,-1.9477,-1.9477,-1.955,-1.9544,-1.9776,-1.9808,-1.9608,-1.961,-1.9611,0,-1.8778,-1.8844,-1.8898,-1.8941,-1.8971,-1.904,-1.9083,-1.909,-1.9136,-1.9199,-1.9251,-1.9326,-1.9387,-1.9511,-1.9541,-1.9611,-1.9606,-1.9682,-1.9617,-1.9616,-1.9611,-1.9608,-1.9616,-1.9696,-1.9699,-1.97,-1.9702,0,-1.8954,-1.8958,-1.902,-1.9086,-1.9138,-1.919,-1.924,-1.9276,-1.9289,-1.9342,-1.942,-1.9467,-1.9559,-1.9635,-1.9705,-1.9735,-1.9723,-1.9721,-1.9742,-1.9746,-1.9739,-1.9747,-1.9515,-1.9717,-1.9716,-1.9714,-1.9714,-1.9713,-1.908,-1.9139,-1.9186,-1.9256,-1.9294,-1.934,-1.9399,-1.9422,-1.9487,-1.9562,-1.9562,-1.9647,-1.9697,-1.979,-1.9824,-1.9892,-1.9869,-1.9898,-1.9906,-1.9915,-1.9923,-1.9725,-1.9904,-1.9904,-1.9903,-1.9903,-1.9903,0,-1.9258,-1.9287,-1.9351,-1.9421,-1.9476,-1.9455,-1.9509,-1.9558,-1.9633,-1.9679,-1.9739,-1.9829,-1.9901,-1.9936,-2.0008,-2.0056,-2.0052,-2.0075,-2.0074,-2.0081,-1.9938,-1.9914,-2.0077,-2.0077,-2.0077,-2.0077,-2.0077,-2.0077,-1.9358,-1.9456,-1.9466,-1.9583,-1.9611,-1.9694,-1.9727,-1.977,-1.9808,-1.9908,-1.9968,-1.9989,-2.0031,-2.0106,-2.0173,-2.0181,-2.021,-2.0237,-2.0243,-2.0109,-2.0091,-2.0074,-2.0052,-2.0242,-2.0242,-2.0381,-2.0382,-2.0383]},{"header":{"parameterUnit":"m.s-1","parameterCategory":1,"la1":30.2991,"la2":30.254,"lo1":-89.0895,"lo2":-89.0444,"dy":0.0017,"dx":0.0017,"nx":28,"ny":28,"refTime":"2025-02-24T09:00:00:Z","depth":0,"parameterNumber":3,"parameterNumberName":"V-component_of_WINDS"},"data":[0,0,0,0,0,0,0,0,0,0,0,0,0,0,0,0,0,0,0,0,0,0,0,0,0,0,0,0,0,0,0,0,0,0,0,0,0,0,0,0,0,0,0,0,0,0,0,0,0,0,0,0,0,0,0,0,0,0,-4.8338,-4.8337,0,-4.8304,-4.8303,-4.8303,-4.8209,-4.8207,-4.8205,-4.8203,-4.8171,-4.8172,-4.8173,0,0,0,0,0,0,0,0,0,0,0,0,0,-4.8322,-4.8323,-4.8338,-4.8337,-4.8337,-4.8304,-4.8303,-4.8303,-4.821,-4.8207,-4.8205,-4.8202,-4.8171,-4.8172,-4.8173,0,0,0,0,0,0,0,0,0,0,0,0,0,-4.8313,-4.8323,-4.8338,-4.8286,-4.8281,-4.8304,-4.8303,-4.8303,-4.821,-4.8207,-4.8204,-4.8201,-4.817,-4.8172,-4.8173,-4.8244,0,0,-4.8178,-4.8179,0,0,0,0,0,0,0,0,-4.8314,-4.8314,-4.8294,-4.829,-4.8284,-4.8258,-4.8286,-4.8283,-4.8211,-4.8237,-4.8203,-4.82,-4.8202,-4.8201,-4.8202,-4.8242,-4.8241,-4.8178,-4.8179,-4.818,-4.818,0,0,0,0,0,0,0,-4.8314,-4.8315,-4.8324,-4.8294,-4.8288,-4.8265,-4.826,-4.8285,-4.8237,-4.8235,-4.8228,-4.8225,-4.8199,-4.82,-4.82,-4.824,-4.8178,-4.8179,-4.818,-4.8181,-4.8336,-4.834,0,0,0,0,0,0,-4.8322,-4.8316,-4.8325,-4.8323,-4.8292,-4.8268,-4.8263,-4.8269,-4.8237,-4.8229,-4.8228,-4.8221,-4.8199,-4.8198,-4.8199,-4.8278,-4.818,-4.8181,-4.8182,-4.8333,-4.8337,-4.8341,0,0,0,0,0,0,-4.8322,-4.8324,-4.8327,-4.8318,-4.8316,-4.8271,-4.828,-4.827,-4.8271,-4.8231,-4.8223,-4.8238,-4.8197,-4.8196,-4.8233,-4.8276,-4.8182,-4.8183,-4.833,-4.8335,-4.8339,-4.8439,0,0,0,0,0,0,-4.8322,-4.8325,-4.8351,-4.8319,-4.8317,-4.8362,-4.8282,-4.8272,-4.8274,-4.8265,-4.8238,-4.8231,-4.8194,-4.8231,-4.8235,-4.8276,-4.8184,-4.8325,-4.8332,-4.8337,-4.8432,-4.8447,-4.846,0,0,0,0,0,-4.8322,-4.8381,-4.8352,-4.8354,-4.8349,-4.8364,-4.8363,-4.8319,-4.8278,-4.8304,-4.8278,-4.8232,-4.8271,-4.8236,-4.8239,-4.8282,-4.8323,-4.833,-4.8337,-4.8426,-4.8444,-4.8459,0,0,0,0,0,0,-4.842,-4.8376,-4.8344,-4.8394,-4.8384,-4.8348,-4.838,-4.834,-4.8341,-4.8333,-4.8278,-4.8273,-4.8317,-4.8303,-4.8265,-4.8348,-4.8289,-4.8297,-4.8356,-4.8373,-4.8386,-4.8389,-4.8186,0,0,0,0,0,-4.8447,-4.8463,-4.8424,-4.8472,-4.8468,-4.8425,-4.843,-4.8397,-4.8384,-4.8379,-4.8356,-4.8346,-4.8356,-4.8363,-4.837,-4.8429,-4.8422,-4.846,-4.8474,-4.8486,-4.8494,-4.8523,-4.854,-4.8364,-4.8364,-4.8364,0,0,-4.8504,-4.8482,-4.8495,-4.8491,-4.8479,-4.8497,-4.8422,-4.8444,-4.8457,-4.8383,-4.8415,-4.8399,-4.8383,-4.8432,-4.8452,-4.8421,-4.8541,-4.8495,-4.8505,-4.8506,-4.8533,-4.8549,-4.8564,-4.8369,-4.8368,-4.8368,0,0,-4.8617,-4.8602,-4.8639,-4.8629,-4.8611,-4.8582,-4.8591,-4.8562,-4.8547,-4.8579,-4.8523,-4.8538,-4.8556,-4.8547,-4.8545,-4.8654,-4.8612,-4.8658,-4.8731,-4.876,-4.8774,-4.8786,-4.8824,-4.8839,-4.8666,-4.8666,-4.8666,0,-4.869,-4.8714,-4.8664,-4.869,-4.8689,-4.8622,-4.866,-4.8652,-4.8638,-4.864,-4.8606,-4.8626,-4.8612,-4.8656,-4.8683,-4.8684,-4.8692,-4.8661,-4.8776,-4.8787,-4.8798,-4.8834,-4.8849,-4.8672,-4.8671,-4.867,-4.867,0,-4.8804,-4.8822,-4.8855,-4.8842,-4.8845,-4.8877,-4.8833,-4.8842,-4.8808,-4.8783,-4.8816,-4.8796,-4.8797,-4.8805,-4.8773,-4.8846,-4.8827,-4.8786,-4.8725,-4.8821,-4.8854,-4.8868,-4.868,-4.8678,-4.8676,-4.8675,0,0,-4.8978,-4.8936,-4.8949,-4.8942,-4.8917,-4.893,-4.8959,-4.8959,-4.8968,-4.8961,-4.8983,-4.9,-4.8961,-4.8959,-4.8925,-4.8951,-4.9038,-4.8906,-4.8904,-4.8931,-4.9116,-4.9147,-4.9164,-4.9009,-4.9012,-4.9014,-4.9117,0,-4.9084,-4.913,-4.9086,-4.9141,-4.9156,-4.9092,-4.9117,-4.9105,-4.9082,-4.9092,-4.9067,-4.9079,-4.9027,-4.9025,-4.9048,-4.9022,-4.9074,-4.9014,-4.903,-4.9031,-4.9036,-4.9181,-4.9215,-4.9313,-4.913,-4.9132,-4.9133,0,-4.9214,-4.9211,-4.9267,-4.9238,-4.9242,-4.9266,-4.9262,-4.9272,-4.9257,-4.9238,-4.9236,-4.9194,-4.9221,-4.9162,-4.9198,-4.9158,-4.9162,-4.915,-4.9153,-4.9153,-4.9088,-4.9185,-4.9343,-4.9358,-4.9153,-4.9151,-4.915,0,-4.9334,-4.9345,-4.9379,-4.9375,-4.9342,-4.936,-4.9347,-4.9328,-4.9331,-4.9328,-4.933,-4.933,-4.9331,-4.9333,-4.9292,-4.9253,-4.9333,-4.9271,-4.9319,-4.932,-4.9338,-4.9338,-4.95,-4.9342,-4.9341,-4.9341,-4.9341,0,-4.9457,-4.9494,-4.9433,-4.9454,-4.9494,-4.9443,-4.9483,-4.9464,-4.9448,-4.9465,-4.941,-4.9427,-4.9373,-4.9385,-4.9353,-4.9388,-4.9388,-4.9374,-4.9365,-4.9379,-4.9381,-4.9381,-4.9373,-4.9345,-4.9344,-4.9343,-4.9343,0,-4.9599,-4.9559,-4.9593,-4.9558,-4.955,-4.9581,-4.9551,-4.957,-4.9543,-4.9565,-4.9567,-4.9525,-4.9536,-4.9496,-4.95,-4.9479,-4.9529,-4.9509,-4.9534,-4.9528,-4.9578,-4.9574,-4.9745,-4.9765,-4.9595,-4.9597,-4.9598,0,-4.9679,-4.9706,-4.9674,-4.9681,-4.967,-4.9682,-4.9684,-4.9635,-4.964,-4.9624,-4.9645,-4.9651,-4.9653,-4.9673,-4.9643,-4.9646,-4.9625,-4.9685,-4.9626,-4.9638,-4.9626,-4.9625,-4.9627,-4.9698,-4.97,-4.9702,-4.9703,0,-4.9827,-4.9806,-4.9811,-4.9809,-4.9813,-4.9809,-4.9802,-4.9811,-4.9758,-4.9766,-4.9776,-4.9777,-4.9781,-4.9787,-4.9784,-4.9771,-4.9729,-4.9722,-4.9733,-4.9747,-4.9761,-4.9754,-4.9568,-4.9718,-4.9717,-4.9716,-4.9715,-4.9714,-4.994,-4.9961,-4.9941,-4.9948,-4.9937,-4.9931,-4.9947,-4.9921,-4.9928,-4.9927,-4.9898,-4.9913,-4.9896,-4.9887,-4.9878,-4.989,-4.9862,-4.9878,-4.9882,-4.9887,-4.9895,-4.9759,-4.9889,-4.9889,-4.9888,-4.9888,-4.9887,0,-5.0085,-5.0069,-5.0076,-5.0066,-5.0072,-5.0031,-5.002,-5.0028,-5.0042,-5.003,-5.0032,-5.0043,-5.0049,-5.002,-5.0022,-5.0037,-5.0017,-5.0039,-5.0037,-5.0035,-4.992,-4.991,-5.0054,-5.0054,-5.0054,-5.0054,-5.0054,-5.0054,-5.0161,-5.0193,-5.0169,-5.0195,-5.0179,-5.0193,-5.019,-5.0185,-5.0175,-5.0189,-5.0193,-5.0174,-5.0155,-5.0154,-5.0158,-5.0149,-5.0153,-5.0181,-5.0166,-5.0059,-5.0043,-5.0028,-5.0018,-5.0182,-5.0182,-5.0279,-5.028,-5.028]}]]